Location: Ferchesar
(52.6477°N, 12.4298°E)
Time: 16:58:55
(UTC+01:00)

Explorer 7 - Pass Details

Date: 16 December 2021
Orbit: 483 x 674 km, 50.3° (Epoch: 23 January)

Event Time Altitude Azimuth Distance (km) Brightness Sun altitude
Rises 00:22:13 0° 191° (SSW) 2,981 - -60.5°
Reaches altitude 10° 00:25:46 10° 165° (SSE) 2,045 - -60.4°
Maximum altitude 00:27:55 13° 137° (SE) 1,828 - -60.4°
Drops below altitude 10° 00:30:02 10° 110° (ESE) 2,005 - -60.3°
Sets 00:33:27 0° 83° (E) 2,871 - -60.2°
